星链-4720 (STARLINK-4720 )

导读 | 星芒AI

STARLINK-4720 是 SpaceX Starlink 项目中的一颗低轨通信卫星,属于该星座的第 16 批次发射任务。该卫星旨在为全球用户提供高速互联网服务,尤其关注网络覆盖不足的地区。它运行在约 550 公里的轨道高度,配备先进通信设备,支持高频段数据传输。STARLINK-4720 与其他 Starlink 卫星协同工作,构建起全球性的宽带网络,提升远程教育、医疗和商业通信的可及性。该项目持续扩展,推动全球数字连接的普及。

基本信息
目录编号:
53800
目录名称:
STARLINK-4720
国际标识:
2022-111AD
轨道中心:
EARTH
卫星名称:
星链-4720
卫星全名:
星链-4720 (STARLINK-4720 )
卫星状态:
在轨 (已飞行1151 天)
发射日期:
2022-09-11 UTC
国别 :
美国 (US)
星等 :
--
轨道信息
数据来源 国际轨道数据
星历时间: 2025-11-05T03:17:34+0800
5小时前
查看轨道信息
半长轴: 6918.056km
偏心率: 0.0001415
轨道倾角: 53.217°
近地点辐角 92.431°
升交点赤经 104.700°
平近点角 267.685°
近地点: 538.942km
远地点: 540.9km
周期: 95.441分钟
每日圈数: 15.087826
详细信息
固有亮度:
5
最大亮度:
2.5
卫星平台:
Starlink v1.5
覆盖范围:
全球
运营商:
太空探索技术公司
运营商所在国:
美国
制造商(研发单位):
太空探索技术公司
制造商所在国:
美国
使用方式:
暂无
卫星简介
星链(Starlink)计划是由太空探索技术公司(SpaceX)提出的一个巨型低轨卫星互联网星座项目,计划在2019年至2024年间在太空搭建由约1.2万颗卫星组成的“星链”网络,其中1584颗将部署在地球上空550千米处的近地轨道,并从2020年开始工作。该卫星仍在工作。
2D轨道图
3D轨道图
轨道高度分析图
轨道倾角分析图
轨道综合分析图
查看轨道综合分析图